Radiation Dose at Monitoring Post of Fukushima Daini Nuclear Power Station
Date,Time,MP-1(microSv/h),MP-2(microSv/h),MP-3(microSv/h),MP-4(microSv/h),MP-5(microSv/h),MP-6(microSv/h),MP-7(microSv/h),Wind Direction,Wind Velocity(m/s),Rain
2022/03/20,00:00,0.152,0.140,0.220,0.213,0.219,0.121,0.077,south-southeast,2.9,No
2022/03/20,00:10,0.152,0.139,0.220,0.212,0.217,0.122,0.078,south,4.1,No
2022/03/20,00:20,0.153,0.141,0.219,0.212,0.219,0.121,0.078,south,4.4,No
2022/03/20,00:30,0.152,0.140,0.219,0.212,0.218,0.121,0.078,south,4.6,Yes
2022/03/20,00:40,0.152,0.140,0.219,0.212,0.218,0.121,0.077,south-southwest,4.8,Yes
2022/03/20,00:50,0.152,0.140,0.221,0.212,0.217,0.120,0.077,south-southwest,4.9,Yes
2022/03/20,01:00,0.153,0.140,0.219,0.213,0.219,0.121,0.078,south,3.8,Yes
2022/03/20,01:10,0.153,0.140,0.220,0.213,0.217,0.121,0.078,south,4.6,No
2022/03/20,01:20,0.153,0.141,0.218,0.213,0.217,0.122,0.077,south,4.1,No
2022/03/20,01:30,0.153,0.140,0.219,0.213,0.217,0.121,0.078,south-southwest,2.7,No
2022/03/20,01:40,0.152,0.141,0.219,0.213,0.218,0.121,0.078,southwest,3.2,No
2022/03/20,01:50,0.153,0.141,0.220,0.213,0.219,0.121,0.077,west,2.9,No
2022/03/20,02:00,0.152,0.140,0.220,0.214,0.219,0.121,0.077,west-northwest,2.7,No
2022/03/20,02:10,0.153,0.140,0.219,0.212,0.218,0.122,0.077,west-northwest,1.8,No
2022/03/20,02:20,0.152,0.141,0.221,0.213,0.218,0.121,0.078,-,CALM,No
2022/03/20,02:30,0.153,0.141,0.219,0.213,0.219,0.122,0.077,north,1.0,No
2022/03/20,02:40,0.153,0.140,0.220,0.213,0.219,0.121,0.078,east,0.5,No
2022/03/20,02:50,0.154,0.140,0.219,0.213,0.218,0.120,0.078,-,CALM,No
2022/03/20,03:00,0.152,0.140,0.220,0.212,0.218,0.121,0.078,west-southwest,0.5,No
2022/03/20,03:10,0.153,0.140,0.219,0.213,0.217,0.122,0.078,west-northwest,0.7,No
2022/03/20,03:20,0.153,0.140,0.219,0.212,0.218,0.122,0.078,-,CALM,No
2022/03/20,03:30,0.153,0.141,0.220,0.213,0.218,0.121,0.077,-,CALM,No
2022/03/20,03:40,0.153,0.140,0.221,0.214,0.218,0.121,0.078,west-northwest,1.0,No
2022/03/20,03:50,0.153,0.141,0.220,0.213,0.217,0.121,0.077,northwest,1.6,No
2022/03/20,04:00,0.153,0.140,0.220,0.212,0.217,0.122,0.077,west-northwest,4.1,No
2022/03/20,04:10,0.153,0.140,0.219,0.213,0.218,0.121,0.078,northwest,5.5,No
2022/03/20,04:20,0.153,0.141,0.220,0.213,0.219,0.121,0.078,northwest,6.4,No
2022/03/20,04:30,0.153,0.141,0.221,0.214,0.219,0.121,0.078,northwest,5.7,No
2022/03/20,04:40,0.153,0.141,0.220,0.213,0.218,0.122,0.077,northwest,5.4,No
2022/03/20,04:50,0.153,0.141,0.220,0.214,0.219,0.122,0.078,northwest,5.1,No
2022/03/20,05:00,0.152,0.140,0.220,0.212,0.219,0.122,0.078,northwest,4.9,No
2022/03/20,05:10,0.152,0.140,0.220,0.212,0.219,0.121,0.078,northwest,6.6,No
2022/03/20,05:20,0.152,0.140,0.220,0.213,0.218,0.121,0.078,northwest,6.3,No
2022/03/20,05:30,0.153,0.140,0.220,0.213,0.219,0.121,0.078,northwest,4.8,No
2022/03/20,05:40,0.153,0.140,0.221,0.213,0.219,0.121,0.078,north-northwest,3.8,No
2022/03/20,05:50,0.152,0.141,0.221,0.213,0.219,0.121,0.078,northwest,3.8,No
2022/03/20,06:00,0.153,0.141,0.219,0.213,0.219,0.122,0.077,north-northwest,4.1,No
2022/03/20,06:10,0.152,0.141,0.220,0.214,0.219,0.122,0.078,northwest,4.7,No
2022/03/20,06:20,0.152,0.142,0.219,0.214,0.219,0.122,0.078,north-northwest,5.2,No
2022/03/20,06:30,0.153,0.141,0.220,0.214,0.219,0.121,0.078,north-northwest,4.7,No
2022/03/20,06:40,0.153,0.141,0.220,0.213,0.219,0.122,0.078,north-northwest,3.7,No
2022/03/20,06:50,0.154,0.140,0.220,0.213,0.219,0.121,0.077,northwest,3.5,No
2022/03/20,07:00,0.153,0.141,0.221,0.214,0.218,0.122,0.077,north-northwest,1.3,No
2022/03/20,07:10,0.153,0.141,0.220,0.213,0.218,0.122,0.078,north-northwest,1.1,No
2022/03/20,07:20,0.154,0.141,0.219,0.213,0.220,0.122,0.078,-,CALM,No
2022/03/20,07:30,0.153,0.141,0.221,0.213,0.218,0.121,0.078,south-southeast,1.0,No
2022/03/20,07:40,0.153,0.141,0.221,0.213,0.219,0.121,0.078,east-northeast,2.4,No
2022/03/20,07:50,0.153,0.140,0.221,0.214,0.220,0.122,0.077,east-northeast,2.1,No
2022/03/20,08:00,0.153,0.140,0.220,0.212,0.217,0.122,0.077,east-northeast,2.2,No
2022/03/20,08:10,0.153,0.140,0.219,0.213,0.217,0.122,0.077,east-northeast,2.4,No
2022/03/20,08:20,0.152,0.140,0.222,0.213,0.218,0.122,0.078,northeast,2.9,No
2022/03/20,08:30,0.153,0.141,0.219,0.213,0.218,0.121,0.077,east-northeast,3.0,No
2022/03/20,08:40,0.154,0.140,0.219,0.213,0.218,0.121,0.077,east-northeast,3.3,No
2022/03/20,08:50,0.153,0.140,0.221,0.214,0.219,0.121,0.078,east-northeast,2.2,No
2022/03/20,09:00,0.154,0.140,0.220,0.212,0.218,0.121,0.078,east,2.4,No
2022/03/20,09:10,0.154,0.142,0.219,0.214,0.219,0.122,0.077,east,2.7,No
2022/03/20,09:20,0.153,0.140,0.220,0.215,0.218,0.121,0.078,east-southeast,1.8,No
2022/03/20,09:30,0.154,0.141,0.221,0.213,0.218,0.121,0.077,east-southeast,3.3,No
2022/03/20,09:40,0.153,0.142,0.220,0.214,0.219,0.121,0.078,east-southeast,3.0,No
2022/03/20,09:50,0.153,0.141,0.221,0.214,0.219,0.122,0.078,south-southeast,1.6,No
2022/03/20,10:00,0.154,0.140,0.220,0.213,0.218,0.122,0.078,west-southwest,3.2,No
2022/03/20,10:10,0.153,0.140,0.221,0.214,0.219,0.121,0.077,west-northwest,5.9,No
2022/03/20,10:20,0.153,0.140,0.220,0.212,0.218,0.122,0.078,west-northwest,10.9,No
2022/03/20,10:30,0.153,0.141,0.219,0.216,0.219,0.121,0.078,west,6.2,No
2022/03/20,10:40,0.153,0.141,0.220,0.214,0.218,0.122,0.078,west,9.2,No
2022/03/20,10:50,0.153,0.140,0.221,0.214,0.221,0.122,0.077,west,8.2,No
2022/03/20,11:00,0.153,0.141,0.221,0.214,0.219,0.122,0.077,west,13.2,No
2022/03/20,11:10,0.152,0.141,0.222,0.214,0.219,0.121,0.078,west,10.9,No
2022/03/20,11:20,0.154,0.141,0.220,0.213,0.218,0.123,0.078,west,9.9,No
2022/03/20,11:30,0.153,0.140,0.220,0.214,0.219,0.122,0.078,west-northwest,8.8,No
2022/03/20,11:40,0.153,0.140,0.220,0.214,0.217,0.122,0.078,west,11.2,No
2022/03/20,11:50,0.153,0.141,0.220,0.214,0.218,0.122,0.078,west-northwest,7.2,No
2022/03/20,12:00,0.154,0.141,0.222,0.213,0.221,0.123,0.077,west,9.8,No
2022/03/20,12:10,0.154,0.141,0.220,0.214,0.219,0.123,0.078,west-northwest,9.1,No
2022/03/20,12:20,0.154,0.140,0.222,0.214,0.218,0.122,0.078,west-northwest,8.4,No
2022/03/20,12:30,0.153,0.141,0.221,0.215,0.220,0.122,0.078,west-northwest,9.3,No
2022/03/20,12:40,0.154,0.141,0.222,0.213,0.217,0.123,0.077,west-northwest,8.0,No
2022/03/20,12:50,0.154,0.140,0.222,0.215,0.219,0.122,0.078,west-northwest,9.3,No
2022/03/20,13:00,0.154,0.140,0.222,0.213,0.217,0.122,0.078,west-northwest,9.6,No
2022/03/20,13:10,0.153,0.141,0.221,0.215,0.220,0.122,0.078,west-northwest,12.0,No
2022/03/20,13:20,0.154,0.140,0.222,0.214,0.219,0.122,0.078,west-northwest,13.2,No
2022/03/20,13:30,0.153,0.141,0.221,0.215,0.220,0.121,0.078,west-northwest,14.0,No
2022/03/20,13:40,0.154,0.140,0.223,0.215,0.219,0.123,0.078,west-northwest,11.2,No
2022/03/20,13:50,0.154,0.142,0.224,0.215,0.221,0.123,0.078,west,11.5,No
2022/03/20,14:00,0.154,0.142,0.223,0.215,0.220,0.123,0.078,west,10.4,No
2022/03/20,14:10,0.156,0.141,0.223,0.216,0.222,0.123,0.077,west,10.1,No
2022/03/20,14:20,0.154,0.142,0.223,0.216,0.219,0.123,0.078,west,12.4,No
2022/03/20,14:30,0.155,0.141,0.224,0.215,0.220,0.122,0.078,west-northwest,8.3,No
2022/03/20,14:40,0.154,0.142,0.223,0.216,0.220,0.123,0.078,west-northwest,7.3,No
2022/03/20,14:50,0.154,0.143,0.221,0.216,0.221,0.123,0.079,west-northwest,9.5,No
2022/03/20,15:00,0.155,0.141,0.222,0.215,0.218,0.122,0.077,west-northwest,7.4,No
2022/03/20,15:10,0.154,0.141,0.224,0.217,0.220,0.123,0.078,west-northwest,7.0,No
2022/03/20,15:20,0.155,0.141,0.223,0.216,0.220,0.122,0.077,west-northwest,9.8,No
2022/03/20,15:30,0.155,0.142,0.223,0.215,0.220,0.124,0.078,west,8.7,No
2022/03/20,15:40,0.154,0.142,0.225,0.217,0.220,0.123,0.078,west-northwest,10.2,No
2022/03/20,15:50,0.155,0.141,0.224,0.216,0.220,0.123,0.078,west-northwest,8.1,No
2022/03/20,16:00,0.154,0.142,0.224,0.216,0.222,0.122,0.078,west-northwest,6.6,No
2022/03/20,16:10,0.155,0.142,0.224,0.218,0.220,0.123,0.078,northwest,8.2,No
2022/03/20,16:20,0.154,0.142,0.224,0.216,0.220,0.123,0.078,west-northwest,9.0,No
2022/03/20,16:30,0.155,0.142,0.224,0.215,0.220,0.123,0.078,west-northwest,8.3,No
2022/03/20,16:40,0.154,0.142,0.224,0.217,0.220,0.123,0.078,west-northwest,8.3,No
2022/03/20,16:50,0.155,0.142,0.224,0.216,0.222,0.124,0.078,west-northwest,7.6,No
2022/03/20,17:00,0.155,0.143,0.225,0.217,0.220,0.123,0.078,west-northwest,7.3,No
2022/03/20,17:10,0.155,0.142,0.223,0.217,0.221,0.123,0.077,northwest,6.8,No
2022/03/20,17:20,0.156,0.143,0.224,0.216,0.221,0.124,0.079,northwest,5.5,No
2022/03/20,17:30,0.155,0.142,0.224,0.216,0.220,0.124,0.078,northwest,5.7,No
2022/03/20,17:40,0.155,0.143,0.225,0.216,0.222,0.123,0.078,west-northwest,5.8,No
2022/03/20,17:50,0.155,0.142,0.224,0.215,0.220,0.124,0.078,northwest,6.6,No
2022/03/20,18:00,0.155,0.142,0.224,0.217,0.220,0.123,0.078,northwest,4.0,No
2022/03/20,18:10,0.155,0.143,0.224,0.217,0.221,0.124,0.077,west-northwest,3.8,No
2022/03/20,18:20,0.154,0.143,0.223,0.216,0.220,0.123,0.078,north,1.9,No
2022/03/20,18:30,0.156,0.142,0.225,0.217,0.220,0.123,0.078,north-northwest,4.1,No
2022/03/20,18:40,0.156,0.143,0.223,0.217,0.220,0.123,0.078,north-northwest,4.4,No
2022/03/20,18:50,0.155,0.142,0.223,0.216,0.220,0.124,0.078,northwest,3.2,No
2022/03/20,19:00,0.156,0.142,0.224,0.216,0.222,0.123,0.078,northwest,3.8,No
2022/03/20,19:10,0.156,0.142,0.225,0.215,0.219,0.123,0.078,northwest,3.2,No
2022/03/20,19:20,0.155,0.142,0.225,0.215,0.219,0.123,0.079,north-northwest,3.2,No
2022/03/20,19:30,0.156,0.141,0.224,0.217,0.223,0.122,0.078,north-northwest,3.5,No
2022/03/20,19:40,0.155,0.141,0.223,0.217,0.220,0.123,0.079,north-northwest,4.8,No
2022/03/20,19:50,0.155,0.142,0.224,0.216,0.221,0.122,0.078,north-northwest,5.1,No
2022/03/20,20:00,0.155,0.143,0.224,0.216,0.220,0.123,0.078,north,4.7,No
2022/03/20,20:10,0.155,0.142,0.224,0.217,0.220,0.122,0.078,north-northwest,4.4,No
2022/03/20,20:20,0.155,0.142,0.225,0.218,0.219,0.122,0.078,north-northwest,4.3,No
2022/03/20,20:30,0.156,0.142,0.223,0.216,0.220,0.124,0.078,north-northwest,5.4,No
2022/03/20,20:40,0.154,0.142,0.224,0.217,0.221,0.123,0.079,north-northwest,5.9,No
2022/03/20,20:50,0.156,0.142,0.224,0.217,0.221,0.123,0.079,north-northwest,4.4,No
2022/03/20,21:00,0.155,0.143,0.225,0.217,0.221,0.124,0.079,north-northwest,2.7,No
2022/03/20,21:10,0.155,0.142,0.224,0.216,0.221,0.123,0.079,north-northwest,1.8,No
2022/03/20,21:20,0.156,0.142,0.224,0.217,0.220,0.124,0.078,northwest,1.9,No
2022/03/20,21:30,0.154,0.142,0.224,0.216,0.220,0.124,0.078,northwest,2.1,No
2022/03/20,21:40,0.155,0.143,0.225,0.217,0.221,0.123,0.078,north-northwest,2.7,No
2022/03/20,21:50,0.156,0.142,0.224,0.218,0.222,0.124,0.078,north-northeast,2.2,No
2022/03/20,22:00,0.155,0.141,0.225,0.216,0.220,0.123,0.078,north,2.4,No
2022/03/20,22:10,0.155,0.142,0.223,0.216,0.220,0.124,0.078,north-northwest,2.7,No
2022/03/20,22:20,0.155,0.142,0.224,0.217,0.221,0.122,0.078,north-northwest,3.0,No
2022/03/20,22:30,0.155,0.142,0.224,0.218,0.221,0.124,0.078,north-northwest,3.2,No
2022/03/20,22:40,0.155,0.142,0.224,0.218,0.221,0.124,0.079,north,3.3,No
2022/03/20,22:50,0.155,0.143,0.224,0.217,0.220,0.123,0.079,north,3.2,No
2022/03/20,23:00,0.156,0.143,0.224,0.216,0.221,0.123,0.079,north-northeast,2.7,No
2022/03/20,23:10,0.156,0.142,0.224,0.217,0.220,0.124,0.078,north-northeast,1.9,No
2022/03/20,23:20,0.155,0.142,0.225,0.217,0.220,0.122,0.079,north-northeast,0.7,No
2022/03/20,23:30,0.156,0.143,0.223,0.216,0.220,0.123,0.079,northeast,1.0,No
2022/03/20,23:40,0.156,0.143,0.224,0.216,0.220,0.123,0.079,-,CALM,No
2022/03/20,23:50,0.155,0.142,0.224,0.217,0.221,0.123,0.078,north,1.3,No
